If you wish to contribute or participate in the discussions about articles you are invited to join SKYbrary as a registered user

 Actions

Toulon-Hyères Airport

From SKYbrary Wiki

LFTH
Airport
ICAO: LFTH – IATA: TLN
Summary
Name Toulon-Hyères Airport
Region Europe
Territory France FR.gif
Location , Provence-Alpes-Cote d'Azur
Serving Hyeres
Elevation 2.134 m
7 ft
7 ft2.134 m
Type medium airport
Coordinates 43° 5' 50.28" N, 6° 8' 45.71" E
Runways
Designator Length Width Surface ROPS
5/23 2120 m6,955.381 ft
45 m147.638 ft
ASP yes/yes
14/32 1900 m6,233.596 ft
50 m164.042 ft
ASP no/no


METAR
Observation LFTH 230230Z AUTO 08025G38KT CAVOK 23/14 Q1011 NOSIG
Station Hyeres
Date/Time 23 October 2019 02:30:00
Wind direction 80°
Wind speed 25 kts
Lowest cloud amount clouds and visibility OK
Temperature 23°C
Dew point 14°C
Humidity 56%
QNH 1011 hPa
Weather condition n/a